Location: Quaker Farms
(41.4276°N, 73.1557°W)
Time: 20:36:09
(UTC+00:00)

S-56A Canister/Altair - Pass Details

Date: 16 June 2021
Orbit: 631 x 2501 km, 38.9° (Epoch: 30 July)

Event Time Altitude Azimuth Distance (km) Brightness Sun altitude
Rises 10:28:49 0° 236° (WSW) 2,908 9.9 10.9°
Reaches altitude 10° 10:31:03 10° 229° (SW) 2,033 9.2 11.3°
Maximum altitude 10:35:19 42° 158° (SSE) 1,011 8.3 12.0°
Drops below altitude 10° 10:40:39 10° 88° (E) 2,536 12.0 12.9°
Sets 10:43:45 0° 82° (E) 3,732 12.8 13.5°
